• In Portugal
  • List of Countries
  • For 7 days
  • Water Temperature
  • Satellite Maps
  • Weather Map
  • Weather Widgets
  • user-avatar
    Login

    Hourly Weather Goiania

    Today, 19 July, Thursday

    Time Temperature Precipitation Wind Pressure Humidity
    00:00 +20°C° 0 mm 3 mps 701 mmHg 61%
    01:00 +20°C° 0 mm 2 mps 701 mmHg 62%
    02:00 +19°C° 0 mm 2 mps 701 mmHg 64%
    03:00 +19°C° 0 mm 2 mps 701 mmHg 66%
    04:00 +18°C° 0 mm 2 mps 701 mmHg 66%
    05:00 +18°C° 0 mm 2 mps 700 mmHg 66%
    06:00 +18°C° 0 mm 2 mps 700 mmHg 66%
    07:00 +19°C° 0 mm 3 mps 701 mmHg 59%
    08:00 +21°C° 0 mm 4 mps 701 mmHg 51%
    09:00 +23°C° 0 mm 4 mps 702 mmHg 44%
    10:00 +26°C° 0 mm 4 mps 702 mmHg 39%
    11:00 +28°C° 0 mm 4 mps 702 mmHg 35%
    12:00 +30°C° 0 mm 3 mps 702 mmHg 30%
    13:00 +31°C° 0 mm 3 mps 702 mmHg 28%
    14:00 +31°C° 0 mm 3 mps 701 mmHg 26%
    15:00 +32°C° 0 mm 2 mps 701 mmHg 23%
    16:00 +30°C° 0 mm 2 mps 700 mmHg 27%
    17:00 +28°C° 0 mm 2 mps 700 mmHg 31%
    18:00 +26°C° 0 mm 2 mps 699 mmHg 35%
    19:00 +25°C° 0 mm 2 mps 700 mmHg 37%
    20:00 +24°C° 0 mm 2 mps 700 mmHg 40%
    21:00 +23°C° 0 mm 2 mps 700 mmHg 42%
    22:00 +21°C° 0 mm 3 mps 700 mmHg 44%
    23:00 +21°C° 0 mm 3 mps 701 mmHg 45%

    Tomorrow, 20 July, Friday

    Time Temperature Precipitation Wind Pressure Humidity
    00:00 +21°C° 0 mm 3 mps 701 mmHg 47%
    01:00 +20°C° 0 mm 3 mps 700 mmHg 49%
    02:00 +20°C° 0 mm 3 mps 700 mmHg 51%
    03:00 +19°C° 0 mm 2 mps 700 mmHg 54%
    04:00 +19°C° 0 mm 3 mps 700 mmHg 55%
    05:00 +19°C° 0 mm 3 mps 700 mmHg 57%
    06:00 +19°C° 0 mm 3 mps 700 mmHg 59%
    07:00 +20°C° 0 mm 3 mps 701 mmHg 55%
    08:00 +22°C° 0 mm 4 mps 701 mmHg 50%
    09:00 +25°C° 0 mm 4 mps 702 mmHg 46%
    10:00 +27°C° 0 mm 4 mps 702 mmHg 40%
    11:00 +29°C° 0 mm 3 mps 703 mmHg 33%
    12:00 +31°C° 0 mm 3 mps 703 mmHg 27%
    13:00 +32°C° 0 mm 2 mps 702 mmHg 25%
    14:00 +32°C° 0 mm 1 mps 702 mmHg 23%
    15:00 +33°C° 0 mm 1 mps 701 mmHg 21%
    16:00 +31°C° 0 mm 1 mps 701 mmHg 24%
    17:00 +29°C° 0 mm 1 mps 700 mmHg 27%
    18:00 +27°C° 0 mm 1 mps 700 mmHg 30%
    19:00 +26°C° 0 mm 1 mps 700 mmHg 32%
    20:00 +24°C° 0 mm 1 mps 701 mmHg 34%
    21:00 +23°C° 0 mm 2 mps 701 mmHg 36%
    22:00 +23°C° 0 mm 2 mps 701 mmHg 38%
    23:00 +21°C° 0 mm 2 mps 701 mmHg 41%

    Day after tomorrow, 21 July, Saturday

    Time Temperature Precipitation Wind Pressure Humidity
    00:00 +20°C° 0 mm 2 mps 701 mmHg 43%
    01:00 +20°C° 0 mm 2 mps 701 mmHg 45%
    02:00 +19°C° 0 mm 2 mps 701 mmHg 47%
    03:00 +19°C° 0 mm 2 mps 700 mmHg 49%
    04:00 +19°C° 0 mm 2 mps 700 mmHg 49%
    05:00 +19°C° 0 mm 2 mps 700 mmHg 49%
    06:00 +18°C° 0 mm 3 mps 700 mmHg 50%
    07:00 +20°C° 0 mm 3 mps 701 mmHg 49%
    08:00 +22°C° 0 mm 3 mps 702 mmHg 49%
    09:00 +25°C° 0 mm 4 mps 703 mmHg 48%
    10:00 +27°C° 0 mm 3 mps 703 mmHg 42%
    11:00 +29°C° 0 mm 3 mps 703 mmHg 35%
    12:00 +31°C° 0 mm 2 mps 703 mmHg 29%
    13:00 +32°C° 0 mm 2 mps 702 mmHg 27%
    14:00 +32°C° 0 mm 2 mps 701 mmHg 25%
    15:00 +32°C° 0 mm 2 mps 700 mmHg 23%
    16:00 +30°C° 0 mm 2 mps 700 mmHg 27%
    17:00 +29°C° 0 mm 2 mps 700 mmHg 31%
    18:00 +27°C° 0 mm 2 mps 699 mmHg 34%
    19:00 +26°C° 0 mm 2 mps 700 mmHg 36%
    20:00 +25°C° 0 mm 2 mps 700 mmHg 39%
    21:00 +23°C° 0 mm 2 mps 700 mmHg 41%
    22:00 +23°C° 0 mm 2 mps 700 mmHg 43%
    23:00 +22°C° 0 mm 3 mps 700 mmHg 46%

    22 July, Sunday

    Time Temperature Precipitation Wind Pressure Humidity
    00:00 +21°C° 0 mm 3 mps 700 mmHg 48%
    01:00 +21°C° 0 mm 3 mps 700 mmHg 49%
    02:00 +21°C° 0 mm 3 mps 700 mmHg 50%
    03:00 +20°C° 0 mm 3 mps 699 mmHg 52%
    04:00 +20°C° 0 mm 3 mps 699 mmHg 52%
    05:00 +20°C° 0 mm 3 mps 700 mmHg 52%
    06:00 +19°C° 0 mm 3 mps 700 mmHg 52%
    07:00 +21°C° 0 mm 4 mps 701 mmHg 48%
    08:00 +22°C° 0 mm 4 mps 702 mmHg 44%
    09:00 +25°C° 0 mm 4 mps 702 mmHg 40%
    10:00 +27°C° 0 mm 4 mps 702 mmHg 35%
    11:00 +29°C° 0 mm 4 mps 703 mmHg 30%
    12:00 +32°C° 0 mm 4 mps 703 mmHg 26%
    13:00 +31°C° 0 mm 3 mps 702 mmHg 24%
    14:00 +33°C° 0 mm 3 mps 701 mmHg 22%
    15:00 +33°C° 0 mm 3 mps 701 mmHg 21%
    16:00 +30°C° 0 mm 2 mps 701 mmHg 25%
    17:00 +28°C° 0 mm 2 mps 700 mmHg 29%
    18:00 +27°C° 0 mm 2 mps 700 mmHg 33%
    19:00 +26°C° 0 mm 2 mps 701 mmHg 36%
    20:00 +25°C° 0 mm 3 mps 701 mmHg 38%
    21:00 +24°C° 0 mm 3 mps 702 mmHg 41%
    22:00 +24°C° 0 mm 3 mps 702 mmHg 42%
    23:00 +22°C° 0 mm 4 mps 702 mmHg 43%

    23 July, Monday

    Time Temperature Precipitation Wind Pressure Humidity
    00:00 +22°C° 0 mm 4 mps 702 mmHg 44%
    01:00 +22°C° 0 mm 4 mps 702 mmHg 47%
    02:00 +21°C° 0 mm 3 mps 701 mmHg 49%
    03:00 +21°C° 0 mm 3 mps 701 mmHg 51%
    04:00 +21°C° 0 mm 3 mps 701 mmHg 52%
    05:00 +21°C° 0 mm 3 mps 701 mmHg 52%
    06:00 +20°C° 0 mm 4 mps 702 mmHg 52%
    07:00 +21°C° 0 mm 4 mps 702 mmHg 48%
    08:00 +22°C° 0 mm 5 mps 703 mmHg 43%
    09:00 +23°C° 0 mm 5 mps 704 mmHg 39%
    10:00 +26°C° 0 mm 5 mps 704 mmHg 34%
    11:00 +29°C° 0 mm 4 mps 704 mmHg 29%
    12:00 +31°C° 0 mm 3 mps 704 mmHg 24%
    13:00 +31°C° 0 mm 3 mps 703 mmHg 23%
    14:00 +31°C° 0 mm 2 mps 703 mmHg 21%
    15:00 +32°C° 0 mm 2 mps 702 mmHg 20%
    16:00 +30°C° 0 mm 2 mps 702 mmHg 23%
    17:00 +28°C° 0 mm 2 mps 702 mmHg 26%
    18:00 +26°C° 0 mm 2 mps 702 mmHg 29%
    19:00 +25°C° 0 mm 2 mps 702 mmHg 30%
    20:00 +24°C° 0 mm 2 mps 702 mmHg 32%
    21:00 +23°C° 0 mm 2 mps 703 mmHg 34%
    22:00 +21°C° 0 mm 2 mps 703 mmHg 35%
    23:00 +20°C° 0 mm 2 mps 702 mmHg 36%

    24 July, Tuesday

    Time Temperature Precipitation Wind Pressure Humidity
    00:00 +20°C° 0 mm 2 mps 702 mmHg 38%
    01:00 +19°C° 0 mm 2 mps 702 mmHg 41%
    02:00 +19°C° 0 mm 2 mps 702 mmHg 44%
    03:00 +19°C° 0 mm 2 mps 702 mmHg 47%
    04:00 +19°C° 0 mm 2 mps 702 mmHg 50%
    05:00 +19°C° 0 mm 3 mps 702 mmHg 53%
    06:00 +18°C° 0 mm 3 mps 702 mmHg 56%
    07:00 +20°C° 0 mm 4 mps 703 mmHg 53%
    08:00 +22°C° 0 mm 4 mps 703 mmHg 49%
    09:00 +23°C° 0 mm 5 mps 704 mmHg 46%
    10:00 +26°C° 0 mm 5 mps 704 mmHg 41%
    11:00 +28°C° 0 mm 4 mps 704 mmHg 36%
    12:00 +30°C° 0 mm 4 mps 704 mmHg 31%
    13:00 +30°C° 0 mm 4 mps 703 mmHg 29%
    14:00 +31°C° 0 mm 3 mps 703 mmHg 28%
    15:00 +31°C° 0 mm 3 mps 702 mmHg 27%
    16:00 +29°C° 0 mm 3 mps 702 mmHg 31%
    17:00 +28°C° 0 mm 2 mps 702 mmHg 34%
    18:00 +26°C° 0 mm 2 mps 702 mmHg 38%
    19:00 +25°C° 0 mm 2 mps 702 mmHg 41%
    20:00 +24°C° 0 mm 2 mps 702 mmHg 44%
    21:00 +23°C° 0 mm 2 mps 703 mmHg 46%
    22:00 +21°C° 0 mm 2 mps 703 mmHg 48%
    23:00 +21°C° 0 mm 3 mps 703 mmHg 49%
    Show more